• en France
  • Liste des pays
  • À 7 jours
  • Température de l'eau
  • Carte satellitaire
  • Carte météo
  • Widgets météo
  • user-avatar
    Se connecter

    Météo par heure à Manama

    Ce jour, 20 Novembre, Lundi

    Heure Température Précipitation Vent Pression Humidité
    00:00 +26°C° 0 mm 1 m/s 763 mmHg 67%
    01:00 +25°C° 0 mm 1 m/s 763 mmHg 68%
    02:00 +25°C° 0 mm 1 m/s 763 mmHg 68%
    03:00 +25°C° 0 mm 1 m/s 763 mmHg 71%
    04:00 +25°C° 0 mm 1 m/s 763 mmHg 72%
    05:00 +24°C° 0 mm 1 m/s 763 mmHg 72%
    06:00 +24°C° 0 mm 1 m/s 763 mmHg 73%
    07:00 +26°C° 0 mm 1 m/s 763 mmHg 67%
    08:00 +27°C° 0 mm 1 m/s 764 mmHg 60%
    09:00 +28°C° 0 mm 1 m/s 764 mmHg 52%
    10:00 +29°C° 0 mm 2 m/s 763 mmHg 48%
    11:00 +30°C° 0 mm 2 m/s 763 mmHg 44%
    12:00 +30°C° 0 mm 2 m/s 763 mmHg 39%
    13:00 +30°C° 0 mm 2 m/s 762 mmHg 39%
    14:00 +31°C° 0 mm 2 m/s 762 mmHg 38%
    15:00 +31°C° 0 mm 2 m/s 761 mmHg 37%
    16:00 +30°C° 0 mm 3 m/s 761 mmHg 40%
    17:00 +30°C° 0 mm 3 m/s 761 mmHg 42%
    18:00 +29°C° 0 mm 3 m/s 761 mmHg 44%
    19:00 +29°C° 0 mm 4 m/s 762 mmHg 46%
    20:00 +29°C° 0 mm 5 m/s 762 mmHg 48%
    21:00 +29°C° 0 mm 5 m/s 762 mmHg 49%
    22:00 +29°C° 0 mm 6 m/s 761 mmHg 51%
    23:00 +28°C° 0 mm 6 m/s 761 mmHg 53%

    Demain, 21 Novembre, Mardi

    Heure Température Précipitation Vent Pression Humidité
    00:00 +28°C° 0 mm 6 m/s 761 mmHg 54%
    01:00 +28°C° 0 mm 6 m/s 761 mmHg 55%
    02:00 +28°C° 0 mm 6 m/s 761 mmHg 55%
    03:00 +27°C° 0 mm 6 m/s 760 mmHg 55%
    04:00 +27°C° 0 mm 6 m/s 761 mmHg 55%
    05:00 +27°C° 0 mm 6 m/s 761 mmHg 56%
    06:00 +27°C° 0 mm 6 m/s 761 mmHg 56%
    07:00 +28°C° 0 mm 6 m/s 761 mmHg 55%
    08:00 +28°C° 0 mm 6 m/s 761 mmHg 53%
    09:00 +29°C° 0 mm 7 m/s 761 mmHg 51%
    10:00 +30°C° 0 mm 6 m/s 761 mmHg 46%
    11:00 +32°C° 0 mm 6 m/s 761 mmHg 42%
    12:00 +32°C° 0 mm 6 m/s 760 mmHg 37%
    13:00 +33°C° 0 mm 5 m/s 760 mmHg 35%
    14:00 +33°C° 0 mm 5 m/s 759 mmHg 32%
    15:00 +33°C° 0 mm 4 m/s 759 mmHg 29%
    16:00 +32°C° 0 mm 4 m/s 759 mmHg 32%
    17:00 +30°C° 0 mm 4 m/s 759 mmHg 35%
    18:00 +30°C° 0 mm 4 m/s 759 mmHg 38%
    19:00 +29°C° 0 mm 5 m/s 759 mmHg 40%
    20:00 +29°C° 0 mm 6 m/s 759 mmHg 43%
    21:00 +29°C° 0 mm 7 m/s 759 mmHg 46%
    22:00 +29°C° 0 mm 7 m/s 759 mmHg 47%
    23:00 +29°C° 0 mm 7 m/s 758 mmHg 47%

    Après-demain, 22 Novembre, Mercredi

    Heure Température Précipitation Vent Pression Humidité
    00:00 +29°C° 0 mm 7 m/s 758 mmHg 48%
    01:00 +28°C° 0 mm 7 m/s 758 mmHg 48%
    02:00 +28°C° 0 mm 7 m/s 758 mmHg 48%
    03:00 +28°C° 0 mm 7 m/s 758 mmHg 48%
    04:00 +28°C° 0 mm 6 m/s 758 mmHg 47%
    05:00 +28°C° 0 mm 6 m/s 759 mmHg 45%
    06:00 +28°C° 0 mm 5 m/s 759 mmHg 43%
    07:00 +27°C° 0,6 mm 5 m/s 760 mmHg 42%
    08:00 +27°C° 0,6 mm 4 m/s 760 mmHg 41%
    09:00 +27°C° 0,6 mm 4 m/s 760 mmHg 39%
    10:00 +28°C° 0 mm 4 m/s 760 mmHg 36%
    11:00 +29°C° 0 mm 4 m/s 759 mmHg 34%
    12:00 +30°C° 0 mm 5 m/s 759 mmHg 31%
    13:00 +30°C° 0 mm 5 m/s 758 mmHg 30%
    14:00 +32°C° 0 mm 4 m/s 758 mmHg 29%
    15:00 +32°C° 0 mm 4 m/s 757 mmHg 28%
    16:00 +30°C° 0,1 mm 5 m/s 758 mmHg 32%
    17:00 +30°C° 0,1 mm 5 m/s 758 mmHg 35%
    18:00 +29°C° 0,1 mm 6 m/s 758 mmHg 39%
    19:00 +29°C° 0 mm 7 m/s 758 mmHg 41%
    20:00 +29°C° 0 mm 7 m/s 759 mmHg 44%
    21:00 +29°C° 0 mm 8 m/s 759 mmHg 46%
    22:00 +29°C° 0 mm 7 m/s 759 mmHg 46%
    23:00 +29°C° 0 mm 7 m/s 758 mmHg 46%

    23 Novembre, Jeudi

    Heure Température Précipitation Vent Pression Humidité
    00:00 +29°C° 0 mm 6 m/s 758 mmHg 46%
    01:00 +28°C° 0 mm 6 m/s 758 mmHg 45%
    02:00 +28°C° 0 mm 6 m/s 758 mmHg 45%
    03:00 +28°C° 0 mm 6 m/s 757 mmHg 45%
    04:00 +27°C° 0 mm 6 m/s 758 mmHg 44%
    05:00 +27°C° 0 mm 5 m/s 758 mmHg 44%
    06:00 +27°C° 0 mm 5 m/s 759 mmHg 43%
    07:00 +27°C° 0,2 mm 5 m/s 759 mmHg 43%
    08:00 +27°C° 0,2 mm 6 m/s 760 mmHg 43%
    09:00 +27°C° 0,2 mm 6 m/s 760 mmHg 42%
    10:00 +28°C° 0 mm 6 m/s 760 mmHg 44%
    11:00 +28°C° 0 mm 6 m/s 760 mmHg 46%
    12:00 +28°C° 0 mm 6 m/s 759 mmHg 49%
    13:00 +28°C° 0,2 mm 6 m/s 759 mmHg 51%
    14:00 +28°C° 0,2 mm 6 m/s 759 mmHg 54%
    15:00 +27°C° 0,2 mm 5 m/s 758 mmHg 56%
    16:00 +27°C° 0,4 mm 5 m/s 759 mmHg 57%
    17:00 +26°C° 0,4 mm 4 m/s 759 mmHg 58%
    18:00 +26°C° 0,4 mm 4 m/s 759 mmHg 59%
    19:00 +26°C° 0,3 mm 3 m/s 760 mmHg 60%
    20:00 +26°C° 0,3 mm 3 m/s 760 mmHg 61%
    21:00 +25°C° 0,3 mm 3 m/s 761 mmHg 62%
    22:00 +25°C° 1,3 mm 4 m/s 761 mmHg 64%
    23:00 +23°C° 1,3 mm 5 m/s 760 mmHg 67%

    24 Novembre, Vendredi

    Heure Température Précipitation Vent Pression Humidité
    00:00 +23°C° 1,3 mm 6 m/s 760 mmHg 69%
    01:00 +23°C° 0,7 mm 5 m/s 760 mmHg 69%
    02:00 +22°C° 0,7 mm 5 m/s 760 mmHg 70%
    03:00 +22°C° 0,7 mm 5 m/s 760 mmHg 70%
    04:00 +22°C° 0,1 mm 4 m/s 761 mmHg 69%
    05:00 +23°C° 0,1 mm 4 m/s 761 mmHg 69%
    06:00 +24°C° 0,1 mm 3 m/s 762 mmHg 68%
    07:00 +24°C° 0,2 mm 3 m/s 762 mmHg 67%
    08:00 +24°C° 0,2 mm 2 m/s 763 mmHg 65%
    09:00 +24°C° 0,2 mm 2 m/s 763 mmHg 64%
    10:00 +25°C° 0 mm 2 m/s 763 mmHg 62%
    11:00 +25°C° 0 mm 3 m/s 762 mmHg 60%
    12:00 +25°C° 0 mm 3 m/s 762 mmHg 59%
    13:00 +26°C° 0 mm 3 m/s 762 mmHg 57%
    14:00 +26°C° 0 mm 4 m/s 761 mmHg 56%
    15:00 +26°C° 0 mm 4 m/s 761 mmHg 54%
    16:00 +26°C° 0 mm 4 m/s 762 mmHg 55%
    17:00 +26°C° 0 mm 4 m/s 762 mmHg 55%
    18:00 +26°C° 0 mm 4 m/s 763 mmHg 56%
    19:00 +26°C° 0 mm 5 m/s 763 mmHg 56%
    20:00 +26°C° 0 mm 5 m/s 763 mmHg 56%
    21:00 +26°C° 0 mm 5 m/s 764 mmHg 56%
    22:00 +26°C° 0 mm 6 m/s 764 mmHg 57%
    23:00 +24°C° 0 mm 6 m/s 764 mmHg 58%

    25 Novembre, Samedi

    Heure Température Précipitation Vent Pression Humidité
    00:00 +24°C° 0 mm 7 m/s 763 mmHg 59%
    01:00 +24°C° 0 mm 7 m/s 764 mmHg 57%
    02:00 +24°C° 0 mm 8 m/s 764 mmHg 56%
    03:00 +24°C° 0 mm 8 m/s 764 mmHg 54%
    04:00 +24°C° 0 mm 8 m/s 764 mmHg 54%
    05:00 +24°C° 0 mm 8 m/s 764 mmHg 54%
    06:00 +24°C° 0 mm 8 m/s 765 mmHg 54%
    07:00 +24°C° 0 mm 9 m/s 765 mmHg 51%
    08:00 +26°C° 0 mm 9 m/s 765 mmHg 48%
    09:00 +26°C° 0 mm 9 m/s 766 mmHg 44%
    10:00 +26°C° 0 mm 9 m/s 765 mmHg 42%
    11:00 +27°C° 0 mm 9 m/s 765 mmHg 41%
    12:00 +27°C° 0 mm 9 m/s 764 mmHg 39%
    13:00 +27°C° 0 mm 9 m/s 764 mmHg 39%
    14:00 +26°C° 0 mm 9 m/s 764 mmHg 40%
    15:00 +26°C° 0 mm 9 m/s 764 mmHg 41%
    16:00 +26°C° 0 mm 9 m/s 764 mmHg 43%
    17:00 +24°C° 0 mm 9 m/s 765 mmHg 45%
    18:00 +24°C° 0 mm 9 m/s 765 mmHg 47%
    19:00 +24°C° 0 mm 9 m/s 765 mmHg 47%
    20:00 +24°C° 0 mm 8 m/s 765 mmHg 48%
    21:00 +23°C° 0 mm 8 m/s 766 mmHg 49%
    22:00 +23°C° 0 mm 8 m/s 765 mmHg 49%
    23:00 +23°C° 0 mm 8 m/s 765 mmHg 49%
    Voir plus